Retour au catalogue

SL-16 DEB

ActifLEO
NORAD 22330·DEBRIS·🇷🇺 Russia

Lancé Dec 25, 1992 depuis Baikonur Cosmodrome

Loading…

Prochains Passages (prochaines 24 heures)

TLE

FraisSource: Space-Track

Époque: Sep 14, 2026, 15:34 UTC

1 22330U 92093T   26257.64908360  .00000192  00000-0  13082-3 0  9990
2 22330  70.4168  23.2902 0112144 251.5601 121.1080 14.09800361726739

Suivez SL-16 DEB en temps réel avec AllMySat

Download on the App Store